Flag for Spain Weather past 2 weeks in Alicante, Spain

Now
66 °F

Passing clouds.


Feels Like: 66 °F
Forecast: 63 / 76 °F
Wind: 25 mph from Northwest

Location: Alicante / El Altet


UV Index: 5 (Moderate)

Visibility: N/A


Pressure: 30.09 "Hg

Humidity: 28%

Dew point: 32 °F

Location of AlicanteLocation

Historic Weather in Alicante

°F

Alicante temperature yesterday

Maximum temperature yesterday: 73 °F (at 6:00 PM)
Minimum temperature yesterday: 54 °F (at 6:00 AM)
Average temperature yesterday: 64 °F

Past Weeks' High & Low Weather Summary

 TemperatureHumidityPressure
High84 °F (Apr 19, 1:30 PM)94% (Apr 16, 9:00 AM)30.12 "Hg (Apr 16, 9:00 AM)
Low52 °F (Apr 14, 6:00 AM)24% (Apr 22, 3:30 PM)29.56 "Hg (Apr 19, 8:00 PM)
Average66 °F60%29.93 "Hg
* Reported Apr 10 10:00 AM — Apr 25 10:00 AM, Alicante, Weather by CustomWeather, © 2014

Note: Actual official high and low records may vary slightly from our data, if they occured in-between our weather recording intervals... More about our weather records

Advertising

Historic Weather Conditions — Data for Previous 24 hours

 ConditionsComfort  
Time TempWeatherWind HumidityBarometerVisibility
10:00 AM
Apr 25
63 °FPassing clouds.25 mph34%30.07 "HgN/A
9:30 AM61 °FPassing clouds.20 mph39%30.07 "HgN/A
9:00 AM61 °FPassing clouds.10 mph42%30.09 "HgN/A
8:30 AM59 °FPassing clouds.7 mph48%30.09 "HgN/A
8:00 AM59 °FPassing clouds.7 mph48%30.07 "HgN/A
7:30 AM57 °FPassing clouds.15 mph48%30.04 "HgN/A
7:00 AM57 °FPassing clouds.14 mph48%30.04 "HgN/A
6:30 AM59 °FPassing clouds.17 mph48%30.04 "HgN/A
6:00 AM59 °FPassing clouds.14 mph48%30.04 "HgN/A
5:30 AM59 °FPassing clouds.20 mph48%30.01 "HgN/A
5:00 AM59 °FPassing clouds.15 mph48%30.01 "HgN/A
4:30 AM59 °FPassing clouds.13 mph48%30.01 "HgN/A
4:00 AM61 °FPassing clouds.10 mph48%30.01 "HgN/A
3:30 AM61 °FPassing clouds.10 mph45%29.98 "HgN/A
3:00 AM61 °FPassing clouds.12 mph45%29.98 "HgN/A
2:30 AM63 °FPassing clouds.16 mph42%29.98 "HgN/A
2:00 AM63 °FPassing clouds.17 mph45%29.98 "HgN/A
1:30 AM64 °FPassing clouds.20 mph46%29.98 "HgN/A
1:00 AM66 °FPassing clouds.15 mph40%29.95 "HgN/A
12:30 AM66 °FPassing clouds.7 mph35%29.95 "HgN/A
12:00 AM68 °FPassing clouds.12 mph35%29.92 "HgN/A
11:30 PM
Apr 24
68 °FPassing clouds.16 mph40%29.92 "HgN/A
11:00 PM70 °FPassing clouds.15 mph40%29.92 "HgN/A
10:30 PM70 °FPassing clouds.12 mph46%29.92 "HgN/A
10:00 PM70 °FPassing clouds.8 mph53%29.89 "HgN/A
9:30 PM64 °FPassing clouds.3 mph78%29.89 "HgN/A
9:00 PM66 °FPassing clouds.2 mph68%29.89 "HgN/A
8:30 PM66 °FSunny.8 mph68%29.89 "Hg10 mi
8:00 PM66 °FPassing clouds.6 mph68%29.89 "HgN/A
7:30 PM68 °FSunny.8 mph64%29.89 "Hg10 mi
7:00 PM70 °FSunny.5 mph60%29.89 "Hg10 mi
6:30 PM73 °FPassing clouds.7 mph41%29.89 "HgN/A
6:00 PM73 °FPassing clouds.8 mph44%29.89 "HgN/A
5:30 PM72 °FPassing clouds.6 mph61%29.92 "HgN/A
5:00 PM72 °FPassing clouds.6 mph57%29.92 "HgN/A
4:30 PM72 °FPassing clouds.7 mph53%29.95 "HgN/A
4:00 PM72 °FPassing clouds.6 mph57%29.95 "HgN/A
3:30 PM70 °FPassing clouds.10 mph60%29.98 "HgN/A
3:00 PM70 °FPassing clouds.9 mph60%29.98 "HgN/A
2:30 PM68 °FPassing clouds.8 mph64%30.01 "HgN/A
2:00 PM68 °FPassing clouds.8 mph64%30.01 "HgN/A
1:30 PM68 °FPassing clouds.6 mph64%30.01 "HgN/A
1:00 PM68 °FPassing clouds.7 mph64%30.04 "HgN/A
12:30 PM66 °FPassing clouds.7 mph68%30.04 "HgN/A
12:00 PM66 °FPassing clouds.7 mph68%30.04 "HgN/A
11:30 AM66 °FPassing clouds.7 mph73%30.07 "HgN/A
11:00 AM64 °FSunny.8 mph78%30.07 "Hg10 mi
Weather by CustomWeather, © 2014

See weather overview